• în România
  • Lista ţărilor
  • Pe 7 zile
  • Temperatura apei
  • Hartă satelitară
  • Meteo pe hartă
  • Widget-uri
  • user-avatar
    Intrare

    Meteo pe oră la Tanga

    Astăzi, 22 Iulie, Duminică

    Timp Temperatura Precipitaţii Vânt Presiune Umiditate
    00:00 +22°C° 0 mm 4 m/s 764 mmHg 89%
    01:00 +22°C° 0,1 mm 4 m/s 764 mmHg 89%
    02:00 +22°C° 0,1 mm 4 m/s 764 mmHg 90%
    03:00 +21°C° 0,1 mm 4 m/s 763 mmHg 91%
    04:00 +21°C° 0,3 mm 4 m/s 764 mmHg 91%
    05:00 +21°C° 0,3 mm 4 m/s 764 mmHg 91%
    06:00 +21°C° 0,3 mm 4 m/s 764 mmHg 91%
    07:00 +23°C° 0,5 mm 5 m/s 764 mmHg 84%
    08:00 +25°C° 0,5 mm 5 m/s 764 mmHg 77%
    09:00 +27°C° 0,5 mm 5 m/s 764 mmHg 69%
    10:00 +28°C° 0,3 mm 6 m/s 764 mmHg 63%
    11:00 +30°C° 0,3 mm 6 m/s 764 mmHg 57%
    12:00 +32°C° 0,3 mm 7 m/s 764 mmHg 51%
    13:00 +32°C° 0,1 mm 7 m/s 764 mmHg 51%
    14:00 +32°C° 0,1 mm 7 m/s 763 mmHg 52%
    15:00 +32°C° 0,1 mm 7 m/s 762 mmHg 52%
    16:00 +30°C° 0 mm 6 m/s 762 mmHg 57%
    17:00 +29°C° 0 mm 6 m/s 762 mmHg 61%
    18:00 +28°C° 0 mm 6 m/s 762 mmHg 66%
    19:00 +27°C° 0 mm 6 m/s 762 mmHg 72%
    20:00 +26°C° 0 mm 5 m/s 763 mmHg 78%
    21:00 +23°C° 0 mm 5 m/s 763 mmHg 84%
    22:00 +23°C° 0 mm 5 m/s 763 mmHg 86%
    23:00 +23°C° 0 mm 5 m/s 763 mmHg 88%

    Mâine, 23 Iulie, Luni

    Timp Temperatura Precipitaţii Vânt Presiune Umiditate
    00:00 +22°C° 0 mm 5 m/s 764 mmHg 90%
    01:00 +22°C° 0 mm 4 m/s 763 mmHg 89%
    02:00 +23°C° 0 mm 4 m/s 763 mmHg 89%
    03:00 +23°C° 0 mm 4 m/s 763 mmHg 88%
    04:00 +22°C° 0,1 mm 4 m/s 763 mmHg 89%
    05:00 +22°C° 0,1 mm 5 m/s 763 mmHg 91%
    06:00 +22°C° 0,1 mm 5 m/s 763 mmHg 92%
    07:00 +23°C° 0,2 mm 5 m/s 763 mmHg 85%
    08:00 +26°C° 0,2 mm 5 m/s 764 mmHg 77%
    09:00 +27°C° 0,2 mm 6 m/s 764 mmHg 70%
    10:00 +29°C° 0,1 mm 6 m/s 764 mmHg 64%
    11:00 +30°C° 0,1 mm 7 m/s 764 mmHg 58%
    12:00 +32°C° 0,1 mm 7 m/s 764 mmHg 52%
    13:00 +32°C° 0,1 mm 7 m/s 763 mmHg 51%
    14:00 +33°C° 0,1 mm 7 m/s 762 mmHg 50%
    15:00 +33°C° 0,1 mm 7 m/s 761 mmHg 49%
    16:00 +30°C° 0,1 mm 7 m/s 761 mmHg 56%
    17:00 +29°C° 0,1 mm 7 m/s 762 mmHg 62%
    18:00 +28°C° 0,1 mm 7 m/s 762 mmHg 68%
    19:00 +27°C° 0,4 mm 7 m/s 762 mmHg 73%
    20:00 +24°C° 0,4 mm 6 m/s 763 mmHg 78%
    21:00 +23°C° 0,4 mm 6 m/s 763 mmHg 83%
    22:00 +23°C° 0,8 mm 5 m/s 763 mmHg 85%
    23:00 +23°C° 0,8 mm 5 m/s 764 mmHg 86%

    Poimâine, 24 Iulie, Marţi

    Timp Temperatura Precipitaţii Vânt Presiune Umiditate
    00:00 +22°C° 0,8 mm 5 m/s 764 mmHg 88%
    01:00 +22°C° 0,8 mm 5 m/s 763 mmHg 88%
    02:00 +22°C° 0,8 mm 5 m/s 763 mmHg 89%
    03:00 +22°C° 0,8 mm 5 m/s 762 mmHg 89%
    04:00 +22°C° 0,3 mm 5 m/s 762 mmHg 89%
    05:00 +21°C° 0,3 mm 5 m/s 762 mmHg 89%
    06:00 +21°C° 0,3 mm 5 m/s 762 mmHg 88%
    07:00 +23°C° 0,3 mm 6 m/s 763 mmHg 82%
    08:00 +24°C° 0,3 mm 6 m/s 763 mmHg 75%
    09:00 +27°C° 0,3 mm 7 m/s 764 mmHg 68%
    10:00 +28°C° 0,2 mm 7 m/s 764 mmHg 63%
    11:00 +29°C° 0,2 mm 7 m/s 764 mmHg 58%
    12:00 +32°C° 0,2 mm 7 m/s 763 mmHg 53%
    13:00 +32°C° 0,1 mm 7 m/s 763 mmHg 52%
    14:00 +32°C° 0,1 mm 8 m/s 762 mmHg 51%
    15:00 +32°C° 0,1 mm 8 m/s 761 mmHg 51%
    16:00 +31°C° 0 mm 8 m/s 761 mmHg 57%
    17:00 +28°C° 0 mm 7 m/s 761 mmHg 63%
    18:00 +27°C° 0 mm 7 m/s 761 mmHg 69%
    19:00 +26°C° 0,1 mm 6 m/s 762 mmHg 76%
    20:00 +24°C° 0,1 mm 6 m/s 762 mmHg 82%
    21:00 +23°C° 0,1 mm 5 m/s 763 mmHg 88%
    22:00 +22°C° 0,3 mm 5 m/s 763 mmHg 89%
    23:00 +22°C° 0,3 mm 5 m/s 763 mmHg 90%

    25 Iulie, Miercuri

    Timp Temperatura Precipitaţii Vânt Presiune Umiditate
    00:00 +22°C° 0,3 mm 4 m/s 763 mmHg 91%
    01:00 +21°C° 0,2 mm 4 m/s 763 mmHg 91%
    02:00 +21°C° 0,2 mm 5 m/s 762 mmHg 92%
    03:00 +21°C° 0,2 mm 5 m/s 761 mmHg 92%
    04:00 +21°C° 0,2 mm 5 m/s 762 mmHg 92%
    05:00 +21°C° 0,2 mm 5 m/s 762 mmHg 92%
    06:00 +21°C° 0,2 mm 5 m/s 762 mmHg 91%
    07:00 +23°C° 0,1 mm 5 m/s 763 mmHg 84%
    08:00 +25°C° 0,1 mm 5 m/s 763 mmHg 77%
    09:00 +27°C° 0,1 mm 6 m/s 764 mmHg 70%
    10:00 +28°C° 0,1 mm 6 m/s 763 mmHg 64%
    11:00 +29°C° 0,1 mm 6 m/s 763 mmHg 58%
    12:00 +32°C° 0,1 mm 6 m/s 763 mmHg 52%
    13:00 +32°C° 0,1 mm 6 m/s 762 mmHg 52%
    14:00 +32°C° 0,1 mm 6 m/s 761 mmHg 51%
    15:00 +32°C° 0,1 mm 6 m/s 760 mmHg 50%
    16:00 +30°C° 0 mm 6 m/s 760 mmHg 54%
    17:00 +29°C° 0 mm 6 m/s 761 mmHg 59%
    18:00 +28°C° 0 mm 5 m/s 761 mmHg 64%
    19:00 +27°C° 0 mm 5 m/s 761 mmHg 70%
    20:00 +25°C° 0 mm 5 m/s 762 mmHg 76%
    21:00 +23°C° 0 mm 5 m/s 763 mmHg 82%
    22:00 +23°C° 0 mm 5 m/s 763 mmHg 84%
    23:00 +23°C° 0 mm 5 m/s 763 mmHg 86%

    26 Iulie, Joi

    Timp Temperatura Precipitaţii Vânt Presiune Umiditate
    00:00 +22°C° 0 mm 4 m/s 763 mmHg 88%
    01:00 +22°C° 0 mm 4 m/s 762 mmHg 89%
    02:00 +22°C° 0 mm 4 m/s 762 mmHg 90%
    03:00 +22°C° 0 mm 4 m/s 761 mmHg 91%
    04:00 +22°C° 0,1 mm 4 m/s 761 mmHg 91%
    05:00 +22°C° 0,1 mm 4 m/s 762 mmHg 91%
    06:00 +22°C° 0,1 mm 4 m/s 762 mmHg 92%
    07:00 +23°C° 0,2 mm 5 m/s 762 mmHg 84%
    08:00 +26°C° 0,2 mm 5 m/s 763 mmHg 77%
    09:00 +27°C° 0,2 mm 6 m/s 764 mmHg 69%
    10:00 +29°C° 0,1 mm 6 m/s 763 mmHg 63%
    11:00 +30°C° 0,1 mm 6 m/s 763 mmHg 57%
    12:00 +32°C° 0,1 mm 6 m/s 762 mmHg 51%
    13:00 +32°C° 0 mm 6 m/s 761 mmHg 51%
    14:00 +32°C° 0 mm 6 m/s 761 mmHg 51%
    15:00 +32°C° 0 mm 6 m/s 760 mmHg 50%
    16:00 +30°C° 0 mm 6 m/s 760 mmHg 55%
    17:00 +29°C° 0 mm 6 m/s 760 mmHg 60%
    18:00 +28°C° 0 mm 6 m/s 761 mmHg 65%
    19:00 +27°C° 0 mm 5 m/s 761 mmHg 72%
    20:00 +26°C° 0 mm 5 m/s 762 mmHg 79%
    21:00 +23°C° 0 mm 4 m/s 762 mmHg 86%
    22:00 +23°C° 0 mm 4 m/s 762 mmHg 88%
    23:00 +23°C° 0 mm 4 m/s 762 mmHg 90%

    27 Iulie, Vineri

    Timp Temperatura Precipitaţii Vânt Presiune Umiditate
    00:00 +22°C° 0 mm 4 m/s 762 mmHg 91%
    01:00 +22°C° 0 mm 3 m/s 762 mmHg 92%
    02:00 +22°C° 0 mm 3 m/s 761 mmHg 92%
    03:00 +22°C° 0 mm 3 m/s 761 mmHg 92%
    04:00 +22°C° 0,1 mm 3 m/s 761 mmHg 92%
    05:00 +22°C° 0,1 mm 4 m/s 762 mmHg 92%
    06:00 +22°C° 0,1 mm 4 m/s 762 mmHg 92%
    07:00 +23°C° 0,1 mm 4 m/s 763 mmHg 84%
    08:00 +26°C° 0,1 mm 4 m/s 763 mmHg 77%
    09:00 +28°C° 0,1 mm 5 m/s 764 mmHg 69%
    10:00 +29°C° 0 mm 5 m/s 763 mmHg 61%
    11:00 +32°C° 0 mm 5 m/s 763 mmHg 54%
    12:00 +34°C° 0 mm 5 m/s 762 mmHg 46%
    13:00 +34°C° 0 mm 6 m/s 762 mmHg 46%
    14:00 +33°C° 0 mm 6 m/s 761 mmHg 47%
    15:00 +33°C° 0 mm 6 m/s 760 mmHg 47%
    16:00 +32°C° 0 mm 6 m/s 760 mmHg 52%
    17:00 +30°C° 0 mm 6 m/s 760 mmHg 58%
    18:00 +29°C° 0 mm 5 m/s 760 mmHg 63%
    19:00 +28°C° 0 mm 5 m/s 761 mmHg 71%
    20:00 +26°C° 0 mm 5 m/s 761 mmHg 79%
    21:00 +25°C° 0 mm 4 m/s 762 mmHg 87%
    22:00 +25°C° 0 mm 4 m/s 762 mmHg 89%
    23:00 +23°C° 0 mm 4 m/s 762 mmHg 91%
    Arată mai mult